User: anonymous   Login
Location: Newark
(43.0000°N, 1.6781°W)
Time: 14:40:40
(UTC+00:00)
Language:

SO-50 - Orbit

View from above orbital plane
View from above orbital plane
View from above satellite
View from above satellite

Ground track
Ground track

The orbit data is extracted from the following two-line orbital elements,

1 27607U 02058C   21127.16678645  .00000023  00000-0  23680-4 0  9991
2 27607  64.5543 104.5948 0035952  36.0316 324.3199 14.75742305988627
Epoch (UTC): 07 May 2021 04:00:10
Eccentricity: 0.0035952
inclination: 64.5543°
perigee height: 617 km
apogee height: 668 km
right ascension of ascending node: 104.5948°
argument of perigee: 36.0316°
revolutions per day: 14.75742305
mean anomaly at epoch: 324.3199°
orbit number at epoch: 98862

The dashed part of the orbit path shows where the satellite is in the earth's shadow,  

DLR